TimeEDT,TemperatureF,Dew PointF,Humidity,Sea Level PressureIn,VisibilityMPH,Wind Direction,Wind SpeedMPH,Gust SpeedMPH,PrecipitationIn,Events,Conditions,WindDirDegrees,DateUTC
12:56 AM,61.0,57.0,87,30.26,10.0,Calm,Calm,-,N/A,,Clear,0,2013-05-28 04:56:00
1:56 AM,57.9,57.0,97,30.25,10.0,Calm,Calm,-,N/A,,Clear,0,2013-05-28 05:56:00
2:56 AM,57.0,55.9,96,30.24,10.0,Calm,Calm,-,N/A,,Clear,0,2013-05-28 06:56:00
3:56 AM,57.0,55.9,96,30.25,9.0,Calm,Calm,-,N/A,,Clear,0,2013-05-28 07:56:00
4:56 AM,57.0,55.9,96,30.24,9.0,Calm,Calm,-,N/A,,Clear,0,2013-05-28 08:56:00
5:56 AM,57.0,55.9,96,30.25,9.0,Calm,Calm,-,N/A,,Clear,0,2013-05-28 09:56:00
6:56 AM,61.0,59.0,93,30.26,8.0,Calm,Calm,-,N/A,,Clear,0,2013-05-28 10:56:00
7:46 AM,66.2,64.4,94,30.26,4.0,Calm,Calm,-,N/A,,Partly Cloudy,0,2013-05-28 11:46:00
7:56 AM,69.1,64.9,87,30.27,10.0,Calm,Calm,-,N/A,,Scattered Clouds,0,2013-05-28 11:56:00
8:56 AM,73.9,63.0,68,30.28,10.0,ESE,4.6,-,N/A,,Clear,120,2013-05-28 12:56:00
9:56 AM,77.0,61.0,58,30.30,10.0,South,4.6,-,N/A,,Clear,170,2013-05-28 13:56:00
10:56 AM,78.1,62.1,58,30.30,10.0,Variable,4.6,-,N/A,,Scattered Clouds,0,2013-05-28 14:56:00
11:56 AM,79.0,61.0,54,30.30,10.0,East,9.2,-,N/A,,Scattered Clouds,100,2013-05-28 15:56:00
12:56 PM,80.1,62.1,54,30.29,10.0,SSE,11.5,-,N/A,,Scattered Clouds,150,2013-05-28 16:56:00
1:56 PM,81.0,61.0,50,30.28,10.0,Variable,4.6,-,N/A,,Clear,0,2013-05-28 17:56:00
2:56 PM,81.0,62.1,52,30.26,10.0,SSE,9.2,-,N/A,,Partly Cloudy,150,2013-05-28 18:56:00
3:56 PM,80.1,61.0,52,30.24,10.0,South,15.0,-,N/A,,Clear,170,2013-05-28 19:56:00
4:56 PM,79.0,64.0,60,30.23,10.0,SSE,13.8,-,N/A,,Clear,150,2013-05-28 20:56:00
5:56 PM,78.1,64.0,62,30.23,10.0,SSE,12.7,-,N/A,,Clear,160,2013-05-28 21:56:00
6:56 PM,75.9,64.0,67,30.23,10.0,South,9.2,-,N/A,,Clear,180,2013-05-28 22:56:00
7:56 PM,73.0,64.9,76,30.23,10.0,South,6.9,-,N/A,,Clear,180,2013-05-28 23:56:00
8:56 PM,71.1,64.9,81,30.24,10.0,South,4.6,-,N/A,,Clear,180,2013-05-29 00:56:00
9:56 PM,70.0,66.9,90,30.24,10.0,South,5.8,-,N/A,,Clear,180,2013-05-29 01:56:00
10:56 PM,69.1,66.0,90,30.25,10.0,South,3.5,-,N/A,,Clear,170,2013-05-29 02:56:00
11:56 PM,69.1,66.9,93,30.25,10.0,South,4.6,-,N/A,,Clear,180,2013-05-29 03:56:00